EW8288 Weather Reports


time (UTC)temp
F
wind
direction
speed
knots
gust
knots
rain 1hr
in
rain 24hr
in
rain mn
in
humidity
%
barometer
mb
20260503211225 64 217 0.9 8.7 0.00 0.00 0.00 45 1013.5
20260503210442 65 192 0.9 5.2 0.00 0.00 0.00 44 1013.5
20260503205226 65 194 0.0 4.3 0.00 0.00 0.00 44 1013.5
20260503204226 65 155 2.6 8.7 0.00 0.00 0.00 43 1013.9
20260503203442 65 189 1.7 7.0 0.00 0.00 0.00 43 1013.9
20260503202225 66 187 0.0 5.2 0.00 0.00 0.00 43 1013.9
20260503201228 66 185 1.7 5.2 0.00 0.00 0.00 42 1013.9
20260503200440 66 175 0.9 5.2 0.00 0.00 0.00 41 1014.2
20260503195442 67 194 1.7 6.1 0.00 0.00 0.00 41 1014.2
20260503194441 67 240 0.9 6.1 0.00 0.00 0.00 40 1014.2
20260503193228 67 230 5.2 7.8 0.00 0.00 0.00 40 1013.9
20260503192224 68 178 1.7 7.8 0.00 0.00 0.00 39 1013.9
20260503191224 68 186 0.0 7.8 0.00 0.00 0.00 39 1013.9
20260503190441 68 186 0.0 7.8 0.00 0.00 0.00 39 1013.9
20260503185227 68 184 0.0 4.3 0.00 0.00 0.00 39 1013.9
20260503184224 68 173 0.0 7.8 0.00 0.00 0.00 39 1013.9
20260503183225 69 190 0.0 12.2 0.00 0.00 0.00 38 1013.9
20260503182227 69 170 0.0 7.8 0.00 0.00 0.00 38 1013.5
20260503181225 69 180 1.7 8.7 0.00 0.00 0.00 38 1013.5
20260503180225 70 190 0.0 7.0 0.00 0.00 0.00 37 1013.5
20260503175440 70 209 0.0 5.2 0.00 0.00 0.00 37 1013.5
20260503174225 71 190 0.0 8.7 0.00 0.00 0.00 36 1013.5
20260503173227 72 196 0.0 7.0 0.00 0.00 0.00 36 1013.5
20260503172440 72 177 0.0 7.0 0.00 0.00 0.00 36 1013.5
20260503171226 73 170 1.7 11.3 0.00 0.00 0.00 35 1013.5
20260503170225 73 189 0.0 9.6 0.00 0.00 0.00 35 1013.5
20260503150226 78 207 0.0 8.7 0.00 0.00 0.00 31 1014.2
20260503131226 78 217 0.9 10.4 0.00 0.00 0.00 32 1015.2
20260503130226 77 162 0.0 5.2 0.00 0.00 0.00 33 1015.6
20260503110227 74 243 10.4 10.4 0.00 0.00 0.00 37 1016.9
20260503100228 71 224 0.0 11.3 0.00 0.00 0.00 39 1017.6
20260503090226 68 171 0.0 6.1 0.00 0.00 0.00 44 1017.9
20260503081441 65 213 2.6 5.2 0.00 0.00 0.00 49 1018.3
20260503080228 64 190 0.0 8.7 0.00 0.00 0.00 48 1018.3
20260503072439 61 235 0.0 8.7 0.00 0.00 0.00 53 1017.9
20260503071227 60 175 0.0 7.8 0.00 0.00 0.00 54 1017.9
20260503070227 60 178 1.7 10.4 0.00 0.00 0.00 54 1017.9
20260503060226 57 184 0.0 4.3 0.00 0.00 0.00 59 1017.9
20260503054442 53 49 0.0 0.0 0.00 0.00 0.00 70 1017.9
20260503053226 50 46 0.0 0.0 0.00 0.00 0.00 72 1017.9
20260503052227 49 46 0.0 0.0 0.00 0.00 0.00 74 1018.3
20260503051227 47 46 0.0 0.0 0.00 0.00 0.00 77 1018.3
20260503050228 46 46 0.0 0.0 0.00 0.00 0.00 79 1017.9
20260503045225 45 46 0.0 0.0 0.00 0.00 0.00 82 1017.9
20260503044225 43 46 0.0 0.0 0.00 0.00 0.00 85 1017.9
20260503043224 42 46 0.0 0.0 0.00 0.00 0.00 87 1017.9
20260503042226 41 46 0.0 0.0 0.00 0.00 0.00 87 1017.9
20260503041226 40 46 0.0 0.0 0.00 0.00 0.00 87 1017.9
20260503040227 40 46 0.0 0.0 0.00 0.00 0.00 86 1017.9
20260503035224 40 46 0.0 0.0 0.00 0.00 0.00 86 1017.9
20260503034226 40 46 0.0 0.0 0.00 0.00 0.00 86 1017.9
20260503033440 40 46 0.0 0.0 0.00 0.00 0.00 86 1017.9
20260503032226 40 46 0.0 0.0 0.00 0.00 0.00 86 1017.9
20260503031224 40 46 0.0 0.0 0.00 0.00 0.00 86 1017.9
20260503030226 40 46 0.0 0.0 0.00 0.00 0.00 86 1017.9
20260503025226 40 46 0.0 0.0 0.00 0.00 0.00 85 1017.9
20260503024226 40 46 0.0 0.0 0.00 0.00 0.00 85 1017.6
20260503023226 41 46 0.0 0.0 0.00 0.00 0.00 85 1017.6
20260503022224 41 46 0.0 0.0 0.00 0.00 0.00 84 1017.6
20260503021226 41 46 0.0 0.0 0.00 0.00 0.00 84 1017.6
20260503020225 42 46 0.0 0.0 0.00 0.00 0.00 84 1017.6
20260503015438 42 46 0.0 0.0 0.00 0.00 0.00 83 1017.6
20260503014224 42 46 0.0 0.0 0.00 0.00 0.00 83 1017.6
20260503013225 42 46 0.0 0.0 0.00 0.00 0.00 82 1017.6
20260503012441 43 46 0.0 0.0 0.00 0.00 0.00 82 1017.6
20260503011226 43 46 0.0 0.0 0.00 0.00 0.00 82 1017.9
20260503010225 43 46 0.0 0.0 0.00 0.00 0.00 82 1017.9
20260503005224 43 46 0.0 0.0 0.00 0.00 0.00 81 1017.9
20260503004225 43 46 0.0 0.0 0.00 0.00 0.00 80 1017.9
20260503003227 44 46 0.0 0.0 0.00 0.00 0.00 80 1017.9
20260503002224 44 46 0.0 0.0 0.00 0.00 0.00 80 1017.9
20260503001224 44 46 0.0 0.0 0.00 0.00 0.00 79 1017.9
20260503000223 44 46 0.0 0.0 0.00 0.00 0.00 79 1018.3
20260502235223 45 46 0.0 0.0 0.00 0.00 0.00 79 1018.3
20260502234226 45 46 0.0 0.0 0.00 0.00 0.00 79 1018.3
20260502233226 45 46 0.0 0.0 0.00 0.00 0.00 78 1018.3
20260502232225 45 46 0.0 0.0 0.00 0.00 0.00 78 1018.3
20260502231226 45 46 0.0 0.0 0.00 0.00 0.00 76 1018.6
20260502230234 46 46 0.0 0.0 0.00 0.00 0.00 77 1018.3
20260502225226 46 46 0.0 0.0 0.00 0.00 0.00 76 1018.6
20260502224439 46 46 0.0 0.0 0.00 0.00 0.00 75 1018.6
20260502223226 46 46 0.0 0.0 0.00 0.00 0.00 74 1018.6
20260502222227 47 46 0.0 0.0 0.00 0.00 0.00 74 1018.6
20260502221226 47 46 0.0 0.0 0.00 0.00 0.00 73 1018.6
20260502220224 47 46 0.0 0.0 0.00 0.00 0.00 71 1018.6
20260502215227 48 46 0.0 0.0 0.00 0.00 0.00 70 1018.6
20260502214441 48 46 0.0 0.0 0.00 0.00 0.00 68 1018.6
20260502213440 49 46 0.0 0.0 0.00 0.00 0.00 66 1019.0
20260502212228 50 46 0.0 0.0 0.00 0.00 0.00 65 1018.6